Date String (YYYY-MM-DD hh:mm:ss) UTC,Instrument flags,absolute air pressure of the measurement (hPa),sample flow rate (lpm),inlet stack bypass flow (lpm),air temperature of the measurement (°C),ambient temperature measured by the external sensor (°C),aerosol sample conditioner tube jacket temperature (°C),OPC LED temperature (°C),internal box temperature (°C),relative humidity of the measurement (%),span deviation,mass concentration of particles derived from Lorenz-Mie calculation of OPC scattering (μg/m³),mass concentration of particles derived from Lorenz-Mie calculation of OPC scattering (μg/m³),mass concentration of particles derived from Lorenz-Mie calculation of OPC scattering (μg/m³)
DateTimeUTC,F1_M11,P_M11,Q1_M11,Q2_M11,T1_M11,T2_M11,T3_M11,T4_M11,T5_M11,U1_M11,ZSPAN_M11,X2_M11,X0_M11,X1_M11
2023-11-11 15:00:00,SystemResetWarning,0831.9,5.00,000.00,022.0,021.3,000.0,030.3,023.5,8.5,0000.0,0003.18,0006.38,0002.21
2023-11-11 15:01:00,SystemResetWarning,0831.9,5.00,000.00,022.1,021.3,000.0,030.3,023.6,7.7,0000.0,0003.21,0006.77,0002.21
2023-11-11 15:02:00,SystemResetWarning,0831.8,5.01,000.00,022.1,021.4,000.0,030.3,023.6,8.3,0000.0,0003.25,0006.58,0002.24
2023-11-11 15:03:00,SystemResetWarning,0831.8,5.00,000.00,022.1,021.4,000.0,030.3,023.6,7.6,0000.0,0003.28,0006.18,0002.24
2023-11-11 15:04:00,SystemResetWarning,0831.9,4.98,000.00,022.1,021.4,000.0,030.3,023.6,6.9,0000.0,0003.27,0006.20,0002.25
2023-11-11 15:05:00,SystemResetWarning,0831.9,5.01,000.00,022.1,021.4,000.0,030.3,023.7,7.2,0000.0,0003.26,0006.21,0002.25
2023-11-11 15:06:00,SystemResetWarning,0832.0,5.01,000.00,022.1,021.4,000.0,030.3,023.7,8.6,0000.0,0003.27,0006.29,0002.25
2023-11-11 15:07:00,SystemResetWarning,0832.0,5.00,000.00,022.1,021.5,000.0,030.4,023.7,9.2,0000.0,0003.28,0006.46,0002.24
2023-11-11 15:08:00,SystemResetWarning,0832.0,4.99,000.00,022.2,021.5,000.0,030.4,023.7,9.1,0000.0,0003.28,0006.48,0002.25
2023-11-11 15:09:00,SystemResetWarning,0832.0,5.00,000.00,022.2,021.5,000.0,030.4,023.7,9.1,0000.0,0003.24,0006.29,0002.25
2023-11-11 15:10:00,SystemResetWarning,0832.0,5.01,000.00,022.2,021.5,000.0,030.4,023.7,9.8,0000.0,0003.21,0006.56,0002.26
2023-11-11 15:11:00,SystemResetWarning,0832.0,5.00,000.00,022.2,021.5,000.0,030.4,023.7,9.6,0000.0,0003.25,0006.83,0002.30
2023-11-11 15:12:00,SystemResetWarning,0832.0,4.99,000.00,022.2,021.6,000.0,030.4,023.8,10.1,0000.0,0003.31,0006.82,0002.35
2023-11-11 15:13:00,SystemResetWarning,0832.0,5.00,000.00,022.2,021.6,000.0,030.4,023.7,10.1,0000.0,0003.30,0006.73,0002.39
2023-11-11 15:14:00,SystemResetWarning,0832.1,5.01,000.00,022.2,021.5,000.0,030.4,023.7,9.6,0000.0,0003.35,0007.35,0002.46
2023-11-11 15:15:00,SystemResetWarning,0832.1,5.01,000.00,022.2,021.5,000.0,030.5,023.7,9.5,0000.0,0003.36,0008.36,0002.51
2023-11-11 15:16:00,SystemResetWarning,0832.0,4.99,000.00,022.3,021.5,000.0,030.5,023.7,9.7,0000.0,0003.36,0008.78,0002.54
2023-11-11 15:17:00,SystemResetWarning,0832.0,4.98,000.00,022.3,021.6,000.0,030.5,023.8,8.5,0000.0,0003.42,0008.88,0002.62
2023-11-11 15:18:00,SystemResetWarning,0832.1,5.00,000.00,022.3,021.6,000.0,030.5,023.8,9.0,0000.0,0003.49,0009.29,0002.72
2023-11-11 15:19:00,SystemResetWarning,0832.1,5.00,000.00,022.3,021.6,000.0,030.5,023.7,9.1,0000.0,0003.57,0009.46,0002.80
2023-11-11 15:20:00,SystemResetWarning,0832.1,5.00,000.00,022.3,021.6,000.0,030.5,023.7,8.1,0000.0,0003.63,0009.52,0002.89
2023-11-11 15:21:00,SystemResetWarning,0832.0,5.00,000.00,022.3,021.6,000.0,030.5,023.8,8.4,0000.0,0003.65,0009.67,0002.94
2023-11-11 15:22:00,SystemResetWarning,0832.0,5.00,000.00,022.3,021.6,000.0,030.5,023.8,8.7,0000.0,0003.64,0009.51,0002.98
2023-11-11 15:23:00,SystemResetWarning,0831.9,5.00,000.00,022.3,021.6,000.0,030.5,023.8,7.8,0000.0,0003.67,0009.50,0003.04
2023-11-11 15:24:00,SystemResetWarning,0831.9,5.00,000.00,022.3,021.6,000.0,030.6,023.9,7.4,0000.0,0003.66,0009.74,0003.05
2023-11-11 15:25:00,SystemResetWarning,0831.9,5.00,000.00,022.3,021.6,000.0,030.6,023.9,7.6,0000.0,0003.60,0009.49,0003.02
2023-11-11 15:26:00,SystemResetWarning,0831.9,4.99,000.00,022.3,021.6,000.0,030.6,023.9,8.1,0000.0,0003.59,0008.62,0003.02
2023-11-11 15:27:00,SystemResetWarning,0831.9,4.99,000.00,022.4,021.6,000.0,030.6,023.9,7.7,0000.0,0003.58,0008.36,0003.01
2023-11-11 15:28:00,SystemResetWarning,0831.9,5.01,000.00,022.4,021.7,000.0,030.6,023.9,8.1,0000.0,0003.51,0008.21,0002.96
2023-11-11 15:29:00,SystemResetWarning,0831.9,5.02,000.00,022.4,021.7,000.0,030.6,023.9,8.6,0000.0,0003.49,0007.83,0002.88
2023-11-11 15:30:00,SystemResetWarning,0831.9,5.00,000.00,022.4,021.7,000.0,030.6,023.9,8.0,0000.0,0003.44,0007.77,0002.82
2023-11-11 15:31:00,SystemResetWarning,0831.9,4.99,000.00,022.4,021.7,000.0,030.6,024.0,7.4,0000.0,0003.37,0007.65,0002.75
2023-11-11 15:32:00,SystemResetWarning,0831.9,5.01,000.00,022.5,021.8,000.0,030.7,024.0,8.4,0000.0,0003.37,0007.34,0002.72
2023-11-11 15:33:00,SystemResetWarning,0831.9,5.01,000.00,022.5,021.8,000.0,030.7,024.0,8.2,0000.0,0003.36,0007.35,0002.68
2023-11-11 15:34:00,SystemResetWarning,0831.9,5.01,000.00,022.5,021.8,000.0,030.7,024.0,7.6,0000.0,0003.34,0008.45,0002.61
2023-11-11 15:35:00,SystemResetWarning,0831.9,5.00,000.00,022.5,021.8,000.0,030.7,024.0,8.0,0000.0,0003.35,0008.77,0002.57
2023-11-11 15:36:00,SystemResetWarning,0832.0,4.99,000.00,022.5,021.8,000.0,030.7,024.0,8.0,0000.0,0003.39,0008.75,0002.56
2023-11-11 15:37:00,SystemResetWarning,0832.0,5.00,000.00,022.5,021.9,000.0,030.7,024.1,7.8,0000.0,0003.39,0008.82,0002.52
2023-11-11 15:38:00,SystemResetWarning,0832.0,5.00,000.00,022.6,021.9,000.0,030.7,024.1,7.8,0000.0,0003.37,0008.44,0002.49
2023-11-11 15:39:00,SystemResetWarning,0832.0,5.00,000.00,022.6,021.9,000.0,030.8,024.1,7.8,0000.0,0003.38,0008.45,0002.49
2023-11-11 15:40:00,SystemResetWarning,0832.0,5.00,000.00,022.6,021.9,000.0,030.8,024.1,7.9,0000.0,0003.35,0008.43,0002.48
2023-11-11 15:41:00,SystemResetWarning,0832.0,5.00,000.00,022.6,021.9,000.0,030.8,024.1,8.5,0000.0,0003.37,0008.48,0002.48
2023-11-11 15:42:00,SystemResetWarning,0831.9,5.00,000.00,022.6,021.9,000.0,030.8,024.1,9.0,0000.0,0003.40,0008.53,0002.47
2023-11-11 15:43:00,SystemResetWarning,0831.9,5.00,000.00,022.6,021.9,000.0,030.8,024.1,8.5,0000.0,0003.40,0008.58,0002.47
2023-11-11 15:44:00,SystemResetWarning,0831.9,5.00,000.00,022.6,021.9,000.0,030.8,024.1,7.9,0000.0,0003.40,0009.10,0002.46
2023-11-11 15:45:00,SystemResetWarning,0831.9,5.00,000.00,022.6,021.9,000.0,030.8,024.1,8.3,0000.0,0003.36,0008.63,0002.44
2023-11-11 15:46:00,SystemResetWarning,0831.9,5.00,000.00,022.6,021.9,000.0,030.8,024.1,8.5,0000.0,0003.35,0007.99,0002.44
2023-11-11 15:47:00,SystemResetWarning,0831.8,5.00,000.00,022.7,021.9,000.0,030.9,024.1,8.7,0000.0,0003.32,0007.66,0002.42
2023-11-11 15:48:00,SystemResetWarning,0831.8,5.00,000.00,022.7,022.0,000.0,030.9,024.2,8.2,0000.0,0003.28,0007.56,0002.39
2023-11-11 15:49:00,SystemResetWarning,0832.1,5.00,000.00,022.7,022.0,000.0,030.9,024.2,7.8,0000.0,0003.31,0007.63,0002.40
2023-11-11 15:50:00,SystemResetWarning,0832.2,5.00,000.00,022.7,022.0,000.0,030.9,024.2,8.0,0000.0,0003.33,0007.74,0002.41
2023-11-11 15:51:00,SystemResetWarning,0831.8,5.02,000.00,022.7,022.0,000.0,030.9,024.3,9.1,0000.0,0003.34,0007.81,0002.41
2023-11-11 15:52:00,SystemResetWarning,0831.9,5.00,000.00,022.7,022.1,000.0,030.9,024.3,9.9,0000.0,0003.36,0007.84,0002.43
2023-11-11 15:53:00,SystemResetWarning,0831.8,5.00,000.00,022.7,022.1,000.0,030.9,024.3,10.0,0000.0,0003.34,0007.75,0002.44
2023-11-11 15:54:00,SystemResetWarning,0831.8,5.00,000.00,022.8,022.1,000.0,030.9,024.3,9.6,0000.0,0003.33,0007.74,0002.45
2023-11-11 15:55:00,SystemResetWarning,0832.0,5.00,000.00,022.8,022.1,000.0,031.0,024.3,9.1,0000.0,0003.29,0007.21,0002.43
2023-11-11 15:56:00,SystemResetWarning,0831.8,5.00,000.00,022.8,022.1,000.0,031.0,024.3,8.9,0000.0,0003.29,0006.34,0002.44
2023-11-11 15:57:00,SystemResetWarning,0831.8,4.99,000.00,022.8,022.2,000.0,031.0,024.4,9.3,0000.0,0003.30,0006.03,0002.43
2023-11-11 15:58:00,SystemResetWarning,0831.8,5.00,000.00,022.8,022.2,000.0,031.0,024.4,9.3,0000.0,0003.33,0006.19,0002.45
2023-11-11 15:59:00,SystemResetWarning,0831.9,5.00,000.00,022.9,022.2,000.0,031.0,024.4,8.4,0000.0,0003.38,0006.69,0002.46
